Location: Arrodets-la-Barthe
(43.0306°N, 0.2829°E)
Time: 10:54:14
(UTC+00:00)

Cosmos 2278 - Pass Details

Date: 06 June 2022
Orbit: 838 x 854 km, 71.1° (Epoch: 01 July)

Event Time Altitude Azimuth Distance (km) Brightness Sun altitude
Rises 02:20:57 0° 349° (N) 3,428 7.6 -16.5°
Maximum altitude 02:27:04 10° 38° (NE) 2,493 7.5 -15.9°
Drops below altitude 10° 02:27:04 10° 38° (NE) 2,493 7.5 -15.9°
Sets 02:33:08 0° 87° (E) 3,422 7.5 -15.2°
